Wind_Speed
36 35 34 34 33 32 32 32 31 28 27 25 24 24 23 22 21 20 20 19 19 18 17 17 17 17 16 15 14 14 15 15 15 15 15 15 15 13 11 11 12 12 13 13
36 36 36 35 34 33 32 32 31 29 27 26 26 26 24 24 23 22 21 21 20 20 20 19 18 17 17 16 16 16 16 16 16 16 16 16 16 14 12 12 12 13 13 14
36 35 36 38 35 34 33 32 31 29 26 26 26 26 25 24 23 23 22 22 22 21 20 19 19 18 18 17 17 18 18 18 17 17 17 16 16 15 13 13 14 14 15 15
37 36 38 36 35 34 34 32 31 29 27 26 26 26 25 24 24 23 23 23 23 21 21 21 20 20 19 19 19 19 19 18 17 18 17 17 16 15 15 15 15 15 16 16
37 37 37 35 34 34 34 32 31 30 29 28 27 27 25 25 25 25 24 23 22 21 21 22 22 21 21 21 20 20 20 20 19 19 19 18 17 16 16 16 17 17 17 17
39 38 37 34 33 33 33 33 31 30 29 28 27 27 25 24 25 24 24 24 23 21 21 22 21 22 22 21 21 20 21 21 21 20 19 19 18 18 19 19 19 18 18 18
39 38 36 33 33 33 34 32 30 30 29 28 28 27 25 25 25 25 24 23 23 23 22 22 21 21 21 21 22 21 21 21 21 20 20 19 19 19 20 20 20 20 20 20
39 38 37 34 33 33 33 32 31 30 29 29 29 28 27 26 26 25 24 24 24 24 24 23 22 22 22 22 22 22 22 21 22 22 21 22 22 21 21 21 22 22 22 22
39 38 37 35 34 34 34 33 32 31 30 30 30 30 29 28 27 27 26 26 26 26 26 25 25 23 23 23 23 24 23 24 24 23 23 22 22 22 22 22 23 23 23 23
38 38 37 35 34 34 35 34 32 32 31 31 31 31 31 30 30 30 29 28 27 27 27 27 26 25 25 24 23 23 24 24 25 25 24 24 23 22 22 23 23 23 23 22
38 37 37 37 35 34 34 34 33 33 32 32 32 32 32 31 32 32 32 30 30 30 28 27 26 25 25 25 25 25 25 25 25 25 25 24 24 24 24 24 25 25 25 24
37 37 37 36 35 35 35 34 34 33 33 32 32 32 33 32 32 32 32 32 31 30 29 28 27 26 26 26 26 25 25 24 24 25 25 25 25 26 26 27 27 27 26 26
36 36 37 36 35 34 35 34 33 33 33 33 33 33 32 32 32 32 33 32 31 30 29 29 29 28 28 28 27 26 26 26 25 25 26 26 27 27 28 29 29 28 27 27
36 36 37 37 35 34 35 34 33 33 33 33 33 32 32 33 33 33 33 32 32 31 30 30 30 30 29 28 28 28 28 28 27 27 27 27 28 28 28 27 28 28 29 28
35 37 37 37 37 36 36 36 35 35 34 33 33 33 33 33 34 34 34 34 33 33 32 31 31 31 31 30 29 29 29 29 29 29 29 29 28 28 28 29 30 30 30 29
35 36 37 38 38 37 36 35 35 35 34 33 33 33 33 33 33 34 34 34 33 32 31 31 30 30 30 30 30 30 30 30 30 30 30 30 30 29 29 29 30 29 29 29
35 35 35 36 37 38 38 38 37 36 35 34 34 35 35 34 34 34 33 32 32 32 33 32 31 30 30 31 31 32 32 32 32 32 32 32 31 30 31 30 30 29 29 29
32 33 34 35 36 36 37 38 37 36 36 35 35 35 35 35 35 34 34 33 33 33 33 33 32 31 31 31 32 32 33 33 33 32 33 33 33 32 32 32 31 31 30 30
31 31 32 33 34 35 36 37 37 36 36 36 35 35 35 35 35 35 34 35 34 34 34 34 34 34 33 34 34 34 34 33 33 33 34 33 33 33 32 31 31 30 30 30
27 29 30 31 31 32 33 34 34 35 35 36 35 35 35 35 34 34 34 34 34 34 35 35 35 35 35 34 34 34 34 33 33 34 34 33 33 32 32 31 30 30 30 30
25 26 28 29 30 30 31 31 32 32 33 34 34 34 33 33 33 34 33 33 33 34 35 35 35 35 35 35 35 34 34 34 34 33 33 33 33 32 32 31 31 31 31 31
23 24 26 28 28 29 29 29 30 32 32 33 33 33 33 33 33 33 32 32 32 33 33 33 34 34 34 34 34 34 34 34 34 33 33 32 32 32 32 32 31 31 31 31
21 22 24 25 26 25 26 27 28 28 29 30 31 31 31 31 31 31 31 31 31 32 32 32 32 32 33 33 33 34 33 33 33 33 33 32 32 32 32 32 32 32 32 32
20 20 20 21 22 23 23 23 24 25 26 26 27 28 29 29 30 31 31 31 32 32 32 32 32 32 32 32 32 32 33 33 33 32 32 32 32 33 33 33 33 33 32 32
18 18 18 18 19 19 20 20 20 21 22 23 24 25 26 27 28 29 29 29 29 30 30 30 30 30 30 30 30 31 31 31 31 32 32 32 32 31 31 32 32 32 32 32
14 15 16 16 16 17 18 19 19 20 21 22 23 24 25 26 27 27 27 28 28 28 27 27 27 28 28 28 29 29 30 30 30 31 31 30 30 30 30 30 30 30 31 31
14 15 15 15 16 16 18 18 18 19 20 21 22 23 24 25 25 25 26 27 27 27 27 26 26 26 26 26 26 27 28 28 29 29 29 30 30 30 30 30 30 30 30 29
Wind_Direction
234 235 237 240 241 243 246 248 251 254 256 258 260 260 262 262 264 266 269 271 275 278 282 285 287 286 288 290 291 295 297 299 304 307 308 310 309 305 297 296 295 298 302 306
236 236 236 239 241 244 246 249 251 253 255 256 257 258 259 260 263 265 267 270 273 276 280 283 282 281 283 285 287 288 291 291 296 300 301 305 308 299 294 295 297 300 301 301
238 237 237 238 239 243 245 247 249 252 254 256 257 257 259 259 261 264 265 268 271 274 277 277 276 277 278 278 283 285 289 291 293 298 304 304 304 296 293 295 297 300 301 301
238 238 239 240 240 243 245 246 248 250 252 255 256 256 257 259 261 263 264 267 268 271 273 274 275 273 273 276 278 280 283 285 290 294 298 299 299 294 291 292 295 298 301 301
237 239 242 241 241 241 243 245 247 249 251 254 254 254 256 259 262 262 265 267 268 270 273 274 274 271 271 271 272 275 279 283 285 289 290 291 293 292 292 292 294 296 299 301
238 240 241 241 242 242 243 245 246 248 250 254 255 255 258 259 260 263 264 267 268 272 275 276 275 272 272 272 274 277 277 278 280 283 285 286 285 287 289 291 292 294 297 299
238 240 242 242 242 242 243 244 245 247 249 251 254 256 259 258 260 262 265 265 267 270 273 273 272 272 269 271 274 276 275 275 276 283 283 282 282 284 285 287 289 290 293 295
238 240 242 243 243 243 243 244 245 247 248 251 253 254 256 257 258 261 264 266 266 269 271 269 268 267 269 271 273 275 276 276 278 281 282 278 278 281 283 283 285 288 289 291
239 240 242 242 243 244 243 243 244 246 247 249 251 253 254 256 258 259 262 265 264 266 268 268 266 268 270 271 272 274 275 277 277 278 279 278 279 282 284 284 285 287 286 287
239 239 240 241 243 244 244 245 246 247 248 248 250 251 252 254 256 258 260 263 264 266 266 266 268 270 270 271 272 274 274 275 276 276 278 278 278 281 282 283 285 285 286 286
238 239 240 240 242 243 244 245 246 248 249 250 250 251 252 255 256 257 259 262 264 265 266 265 266 268 270 272 273 274 274 273 275 274 276 278 279 281 280 281 283 284 286 287
238 239 240 240 242 242 243 244 245 247 250 250 250 251 252 254 256 258 258 259 262 263 264 264 266 268 269 271 272 272 272 270 273 276 276 276 277 278 279 280 281 285 286 286
238 238 239 240 240 241 242 244 246 248 249 251 252 250 251 253 255 257 257 259 261 263 263 265 266 267 268 268 269 270 270 271 274 276 278 278 279 279 279 280 280 283 285 285
237 238 239 239 240 242 243 244 247 248 250 251 250 250 251 252 253 254 256 259 260 260 261 263 265 266 267 266 268 267 268 271 273 275 276 278 278 279 280 282 283 282 284 284
237 238 239 240 241 242 243 245 247 249 248 248 248 249 251 254 255 256 257 257 259 259 259 261 264 266 267 266 267 268 269 271 272 274 276 279 280 280 281 282 283 283 283 283
238 239 240 240 240 241 243 245 246 247 248 250 251 250 252 255 258 261 260 259 259 259 260 261 264 266 266 266 267 269 270 271 272 275 278 279 281 283 285 285 285 284 283 283
239 240 240 239 241 242 244 247 249 249 250 251 253 255 256 258 260 262 262 261 261 260 261 261 262 263 264 265 266 268 270 273 274 275 277 279 280 281 282 283 283 283 284 284
240 240 240 240 242 243 246 249 250 250 251 251 253 255 257 259 260 261 261 261 261 261 261 261 260 261 264 265 266 268 270 272 274 276 277 278 279 280 281 281 282 281 282 282
241 240 241 243 245 247 248 250 251 252 251 250 253 255 256 257 258 259 261 261 261 260 260 261 262 264 266 267 267 268 269 271 272 274 275 277 278 279 279 280 280 280 281 281
240 240 242 244 246 248 248 249 251 251 250 251 253 255 257 257 258 259 261 261 261 261 260 261 262 265 266 267 267 268 268 270 272 274 274 275 276 277 277 278 278 279 279 279
242 243 244 246 247 250 250 249 249 250 250 251 253 255 256 256 257 260 261 261 260 260 261 262 263 264 265 265 266 266 267 270 272 273 273 274 275 275 276 276 276 276 277 278
247 246 247 249 251 252 251 251 250 251 251 252 253 253 254 255 258 260 261 261 259 260 261 263 263 263 264 264 264 266 267 269 270 271 272 273 273 275 275 275 276 275 276 278
251 252 252 252 252 252 252 252 251 251 250 251 252 253 253 254 256 258 259 260 260 260 261 262 262 264 264 264 264 265 266 267 267 269 271 271 272 273 274 274 275 275 276 277
254 253 254 254 252 251 253 254 253 252 251 251 253 254 254 255 257 259 260 261 261 261 261 261 262 264 265 264 263 263 264 264 266 269 271 272 273 273 274 274 274 275 277 278
257 255 254 253 254 256 258 258 257 255 254 254 254 255 256 257 259 260 261 260 260 260 260 260 261 263 264 264 263 263 264 265 266 268 269 270 272 273 274 274 274 276 277 277
255 253 253 256 257 258 258 258 260 260 259 258 257 257 257 258 259 259 260 259 258 258 258 259 261 262 263 263 263 264 265 266 268 269 271 271 271 273 275 275 275 276 277 278
256 257 258 260 264 266 265 262 259 259 260 261 260 259 259 259 260 260 260 258 256 257 257 258 259 261 261 261 263 264 265 266 268 270 271 271 271 272 274 275 275 276 278 279
Height
5853 5857 5861 5864 5867 5870 5873 5875 5878 5881 5884 5887 5889 5891 5892 5894 5895 5896 5897 5897 5897 5897 5897 5897 5896 5896 5895 5895 5894 5893 5892 5891 5890 5889 5887 5886 5884 5882 5881 5881 5880 5879 5878 5876
5845 5850 5853 5856 5860 5863 5866 5869 5872 5875 5878 5881 5882 5884 5886 5888 5889 5890 5891 5891 5892 5892 5892 5892 5891 5891 5891 5891 5890 5890 5889 5888 5887 5886 5885 5883 5881 5879 5878 5878 5877 5876 5875 5873
5837 5842 5844 5848 5853 5856 5859 5862 5866 5868 5873 5874 5876 5878 5880 5882 5883 5884 5885 5886 5886 5886 5886 5886 5887 5887 5887 5886 5886 5885 5885 5884 5883 5882 5881 5879 5878 5877 5876 5875 5874 5873 5871 5870
5829 5834 5836 5844 5846 5849 5852 5855 5859 5862 5865 5867 5869 5871 5873 5875 5876 5877 5878 5879 5880 5880 5881 5881 5881 5881 5881 5881 5881 5881 5881 5880 5879 5878 5877 5876 5874 5873 5872 5871 5870 5869 5868 5866
5821 5824 5829 5835 5838 5841 5845 5848 5852 5855 5858 5860 5862 5864 5866 5868 5870 5871 5872 5873 5873 5874 5874 5875 5875 5875 5875 5875 5876 5876 5876 5876 5875 5874 5872 5871 5870 5869 5868 5868 5867 5865 5864 5863
5814 5817 5821 5829 5832 5834 5839 5841 5845 5848 5851 5853 5855 5857 5860 5862 5863 5864 5865 5866 5867 5868 5868 5869 5869 5869 5870 5870 5870 5871 5871 5870 5870 5869 5868 5866 5865 5865 5864 5863 5862 5861 5860 5859
5806 5810 5815 5820 5823 5827 5831 5836 5839 5841 5843 5846 5848 5851 5854 5855 5856 5857 5859 5860 5861 5861 5862 5863 5863 5864 5864 5864 5865 5865 5865 5864 5864 5863 5862 5862 5861 5860 5859 5858 5857 5856 5855 5854
5799 5803 5809 5813 5816 5820 5824 5828 5831 5834 5836 5839 5842 5844 5846 5847 5849 5851 5852 5853 5854 5854 5855 5857 5857 5858 5858 5859 5859 5859 5858 5858 5858 5857 5856 5856 5855 5854 5853 5853 5852 5850 5849 5848
5793 5799 5802 5805 5809 5812 5816 5820 5823 5826 5829 5832 5834 5836 5838 5840 5842 5844 5845 5846 5847 5848 5848 5849 5850 5851 5852 5852 5852 5852 5852 5852 5851 5851 5850 5849 5849 5848 5847 5847 5846 5845 5843 5842
5785 5789 5793 5797 5801 5804 5808 5812 5815 5819 5821 5824 5826 5829 5831 5833 5835 5837 5838 5839 5840 5841 5842 5842 5843 5844 5845 5845 5845 5845 5845 5845 5845 5845 5844 5843 5842 5841 5841 5840 5840 5838 5837 5835
5777 5781 5785 5789 5793 5796 5800 5803 5807 5810 5813 5816 5818 5821 5823 5824 5826 5828 5830 5831 5833 5834 5835 5835 5836 5837 5837 5838 5838 5838 5838 5838 5838 5837 5837 5836 5835 5835 5834 5834 5833 5832 5830 5829
5769 5773 5777 5781 5785 5788 5792 5795 5799 5802 5805 5807 5810 5812 5814 5816 5817 5819 5821 5823 5825 5826 5827 5827 5828 5829 5829 5830 5830 5830 5830 5830 5830 5830 5829 5828 5828 5827 5827 5826 5826 5825 5823 5822
5761 5765 5768 5773 5776 5780 5783 5787 5790 5793 5796 5799 5801 5803 5805 5807 5809 5810 5812 5814 5816 5817 5818 5819 5820 5821 5821 5822 5822 5822 5822 5822 5822 5822 5821 5821 5820 5819 5819 5818 5818 5817 5816 5815
5752 5756 5760 5764 5768 5772 5775 5778 5781 5784 5787 5790 5792 5794 5796 5798 5800 5802 5803 5805 5807 5808 5810 5811 5811 5812 5813 5813 5813 5814 5814 5814 5814 5814 5813 5813 5812 5812 5811 5810 5810 5809 5808 5807
5744 5748 5752 5755 5759 5763 5766 5769 5773 5775 5778 5780 5783 5785 5787 5789 5791 5792 5794 5796 5797 5799 5801 5802 5803 5803 5804 5805 5805 5805 5805 5805 5805 5805 5805 5805 5804 5804 5803 5802 5801 5801 5800 5798
5735 5738 5742 5746 5750 5754 5757 5760 5763 5766 5768 5771 5773 5775 5777 5779 5781 5783 5784 5786 5788 5790 5791 5792 5794 5794 5795 5796 5797 5797 5797 5797 5796 5796 5796 5796 5796 5795 5794 5793 5793 5792 5791 5790
5726 5730 5733 5737 5741 5745 5748 5751 5754 5757 5759 5761 5763 5765 5767 5769 5771 5773 5774 5776 5778 5780 5781 5783 5784 5785 5786 5786 5787 5788 5788 5787 5787 5787 5787 5787 5787 5786 5786 5785 5784 5783 5782 5781
5718 5722 5725 5729 5732 5736 5739 5742 5744 5747 5749 5751 5753 5756 5758 5760 5762 5764 5765 5767 5768 5770 5772 5773 5774 5775 5776 5777 5777 5778 5778 5778 5778 5778 5778 5777 5777 5777 5776 5776 5775 5774 5773 5771
5710 5714 5717 5720 5723 5726 5729 5732 5734 5737 5739 5742 5744 5746 5748 5750 5751 5753 5755 5757 5758 5760 5762 5763 5764 5765 5766 5767 5767 5768 5768 5768 5768 5768 5768 5768 5767 5767 5767 5766 5765 5764 5763 5762
5703 5706 5709 5712 5715 5717 5719 5721 5724 5727 5729 5731 5734 5736 5738 5740 5741 5743 5744 5746 5748 5749 5751 5752 5753 5754 5755 5756 5756 5757 5757 5758 5758 5758 5758 5758 5758 5757 5757 5756 5755 5754 5753 5752
5697 5699 5702 5704 5707 5708 5710 5712 5714 5716 5719 5721 5723 5726 5727 5729 5731 5732 5734 5735 5737 5738 5739 5741 5742 5743 5744 5745 5745 5746 5746 5747 5747 5747 5747 5748 5747 5747 5746 5746 5745 5744 5743 5742
5690 5693 5695 5697 5699 5700 5701 5703 5705 5707 5709 5711 5713 5715 5717 5719 5720 5722 5723 5725 5726 5727 5728 5729 5730 5731 5732 5733 5734 5735 5736 5736 5737 5737 5737 5737 5737 5737 5736 5735 5735 5734 5733 5732
5684 5686 5688 5689 5691 5692 5693 5695 5696 5698 5700 5702 5703 5705 5707 5709 5710 5712 5713 5714 5715 5716 5717 5719 5720 5721 5721 5722 5723 5725 5725 5726 5726 5726 5726 5726 5727 5726 5726 5725 5725 5724 5723 5722
5678 5680 5681 5683 5684 5686 5687 5688 5689 5690 5691 5693 5695 5696 5698 5699 5701 5702 5703 5704 5705 5706 5707 5708 5709 5710 5711 5712 5713 5714 5715 5715 5716 5716 5716 5716 5716 5716 5715 5715 5714 5713 5713 5712
5673 5674 5676 5677 5678 5679 5680 5681 5682 5683 5684 5685 5687 5688 5689 5690 5691 5692 5693 5694 5695 5695 5697 5698 5699 5700 5701 5702 5703 5704 5705 5705 5705 5706 5706 5706 5706 5706 5705 5705 5704 5703 5703 5702
5668 5670 5671 5672 5673 5674 5674 5675 5676 5677 5678 5678 5679 5680 5681 5681 5682 5683 5684 5684 5685 5686 5687 5689 5690 5691 5692 5692 5693 5694 5695 5695 5696 5696 5696 5696 5696 5696 5696 5695 5694 5694 5693 5692
5664 5665 5666 5667 5668 5668 5669 5669 5670 5670 5671 5671 5672 5673 5673 5673 5674 5674 5675 5675 5676 5678 5679 5680 5681 5682 5683 5684 5685 5685 5686 5686 5687 5687 5687 5687 5686 5686 5686 5685 5685 5684 5683 5683